When you browse on this site, cookies collect data to enhance your experience and personalize the content and advertising you see.
Visit our Privacy Policy to learn more. By continuing to use the site, you agree to this use of cookies and data.
  • In Hungary
  • List of Countries
  • For 7 days
  • Water Temperature
  • Weather Map
  • News
  • Weather Widgets
  • user-avatar
    Login

    Hourly Weather Louny

    Today, 20 February, Thursday

    Time Temperature Precipitation Wind Pressure Humidity
    00:00 0°C° 0 mm 4 mps 749 mmHg 78%
    01:00 0°C° 0 mm 4 mps 749 mmHg 79%
    02:00 0°C° 0 mm 3 mps 749 mmHg 80%
    03:00 0°C° 0 mm 3 mps 749 mmHg 81%
    04:00 0°C° 0 mm 3 mps 749 mmHg 82%
    05:00 0°C° 0 mm 3 mps 749 mmHg 84%
    06:00 0°C° 0 mm 3 mps 749 mmHg 87%
    07:00 +1°C° 0 mm 2 mps 749 mmHg 90%
    08:00 +1°C° 0 mm 3 mps 749 mmHg 86%
    09:00 +2°C° 0 mm 3 mps 749 mmHg 81%
    10:00 +4°C° 0 mm 3 mps 749 mmHg 77%
    11:00 +4°C° 0 mm 3 mps 749 mmHg 78%
    12:00 +4°C° 0 mm 3 mps 749 mmHg 79%
    13:00 +5°C° 0 mm 3 mps 748 mmHg 80%
    14:00 +5°C° 0 mm 3 mps 748 mmHg 82%
    15:00 +5°C° 0 mm 3 mps 747 mmHg 84%
    16:00 +5°C° 0 mm 3 mps 747 mmHg 85%
    17:00 +5°C° 0 mm 3 mps 747 mmHg 86%
    18:00 +4°C° 0 mm 3 mps 746 mmHg 87%
    19:00 +4°C° 0 mm 3 mps 746 mmHg 88%
    20:00 +4°C° 0 mm 3 mps 745 mmHg 87%
    21:00 +4°C° 0 mm 4 mps 745 mmHg 85%
    22:00 +4°C° 0 mm 4 mps 745 mmHg 84%
    23:00 +4°C° 0 mm 4 mps 744 mmHg 82%

    Tomorrow, 21 February, Friday

    Time Temperature Precipitation Wind Pressure Humidity
    00:00 +5°C° 0 mm 5 mps 744 mmHg 81%
    01:00 +5°C° 0 mm 5 mps 743 mmHg 79%
    02:00 +4°C° 0.4 mm 6 mps 743 mmHg 80%
    03:00 +4°C° 0.4 mm 7 mps 743 mmHg 80%
    04:00 +4°C° 0.4 mm 8 mps 744 mmHg 81%
    05:00 +2°C° 0.1 mm 8 mps 745 mmHg 78%
    06:00 +2°C° 0.1 mm 7 mps 747 mmHg 75%
    07:00 0°C° 0.1 mm 7 mps 748 mmHg 72%
    14:00 +4°C° 0 mm 7 mps 752 mmHg 59%
    15:00 +3°C° 0 mm 6 mps 752 mmHg 60%
    16:00 +3°C° 0 mm 6 mps 752 mmHg 61%
    17:00 +2°C° 0 mm 5 mps 753 mmHg 66%
    18:00 +3°C° 0 mm 4 mps 753 mmHg 70%
    19:00 +2°C° 0 mm 3 mps 753 mmHg 74%
    20:00 +2°C° 0 mm 3 mps 753 mmHg 75%
    21:00 +2°C° 0 mm 3 mps 753 mmHg 76%
    22:00 +2°C° 0 mm 3 mps 753 mmHg 76%
    23:00 +2°C° 0 mm 3 mps 753 mmHg 78%

    Day after tomorrow, 22 February, Saturday

    Time Temperature Precipitation Wind Pressure Humidity
    00:00 +2°C° 0 mm 3 mps 753 mmHg 79%
    01:00 +2°C° 0 mm 3 mps 753 mmHg 80%
    02:00 +2°C° 0 mm 3 mps 752 mmHg 81%
    03:00 +2°C° 0 mm 3 mps 752 mmHg 82%
    04:00 +2°C° 0 mm 3 mps 751 mmHg 83%
    05:00 +1°C° 0 mm 4 mps 751 mmHg 82%
    06:00 +1°C° 0 mm 4 mps 751 mmHg 82%
    07:00 0°C° 0 mm 4 mps 751 mmHg 81%
    08:00 +2°C° 0 mm 5 mps 750 mmHg 73%
    09:00 +3°C° 0 mm 6 mps 750 mmHg 65%
    10:00 +5°C° 0 mm 7 mps 750 mmHg 57%
    11:00 +6°C° 0 mm 7 mps 749 mmHg 53%
    12:00 +9°C° 0 mm 8 mps 749 mmHg 49%
    13:00 +10°C° 0 mm 8 mps 749 mmHg 44%
    14:00 +10°C° 0 mm 8 mps 748 mmHg 44%
    15:00 +10°C° 0 mm 8 mps 747 mmHg 44%
    16:00 +10°C° 0 mm 8 mps 747 mmHg 45%
    17:00 +10°C° 0 mm 8 mps 747 mmHg 48%
    18:00 +9°C° 0 mm 7 mps 747 mmHg 51%
    19:00 +8°C° 0 mm 7 mps 747 mmHg 54%
    20:00 +8°C° 0 mm 7 mps 747 mmHg 59%
    21:00 +8°C° 0 mm 7 mps 747 mmHg 63%
    22:00 +8°C° 0 mm 7 mps 747 mmHg 67%
    23:00 +8°C° 0 mm 7 mps 747 mmHg 68%

    23 February, Sunday

    Time Temperature Precipitation Wind Pressure Humidity
    00:00 +8°C° 0 mm 7 mps 747 mmHg 70%
    01:00 +8°C° 0 mm 7 mps 747 mmHg 71%
    02:00 +8°C° 0.1 mm 7 mps 747 mmHg 72%
    03:00 +8°C° 0.1 mm 7 mps 747 mmHg 73%
    04:00 +8°C° 0.1 mm 7 mps 746 mmHg 74%
    05:00 +8°C° 0.1 mm 7 mps 747 mmHg 73%
    06:00 +7°C° 0.1 mm 6 mps 747 mmHg 72%
    07:00 +7°C° 0.1 mm 6 mps 748 mmHg 71%
    08:00 +6°C° 0 mm 7 mps 748 mmHg 67%
    09:00 +6°C° 0 mm 8 mps 748 mmHg 64%
    10:00 +6°C° 0 mm 8 mps 749 mmHg 60%
    11:00 +6°C° 0.1 mm 8 mps 748 mmHg 65%
    12:00 +6°C° 0.1 mm 8 mps 748 mmHg 70%
    13:00 +6°C° 0.1 mm 7 mps 748 mmHg 74%
    14:00 +7°C° 0.3 mm 6 mps 747 mmHg 78%
    15:00 +7°C° 0.3 mm 5 mps 745 mmHg 81%
    16:00 +7°C° 0.3 mm 4 mps 744 mmHg 84%
    17:00 +8°C° 0.9 mm 5 mps 743 mmHg 83%
    18:00 +9°C° 0.9 mm 7 mps 743 mmHg 83%
    19:00 +10°C° 0.9 mm 9 mps 742 mmHg 82%
    20:00 +9°C° 1.4 mm 8 mps 742 mmHg 83%
    21:00 +9°C° 1.4 mm 8 mps 742 mmHg 84%
    22:00 +9°C° 1.4 mm 7 mps 743 mmHg 86%
    23:00 +8°C° 1.1 mm 7 mps 744 mmHg 86%

    24 February, Monday

    Time Temperature Precipitation Wind Pressure Humidity
    00:00 +5°C° 1.1 mm 7 mps 744 mmHg 86%
    01:00 +4°C° 1.1 mm 7 mps 745 mmHg 87%
    02:00 +4°C° 0.2 mm 6 mps 746 mmHg 86%
    03:00 +3°C° 0.2 mm 5 mps 747 mmHg 85%
    04:00 +3°C° 0.2 mm 4 mps 747 mmHg 84%
    05:00 +3°C° 0 mm 3 mps 748 mmHg 82%
    06:00 +4°C° 0 mm 2 mps 748 mmHg 81%
    07:00 +3°C° 0 mm 2 mps 748 mmHg 80%
    08:00 +4°C° 0 mm 2 mps 748 mmHg 77%
    09:00 +5°C° 0 mm 2 mps 749 mmHg 73%
    10:00 +5°C° 0 mm 2 mps 749 mmHg 69%
    11:00 +6°C° 0 mm 2 mps 748 mmHg 73%
    12:00 +6°C° 0 mm 2 mps 748 mmHg 76%
    13:00 +6°C° 0 mm 2 mps 748 mmHg 79%
    14:00 +7°C° 0.1 mm 2 mps 747 mmHg 82%
    15:00 +7°C° 0.1 mm 2 mps 746 mmHg 86%
    16:00 +7°C° 0.1 mm 2 mps 745 mmHg 89%
    17:00 +8°C° 0 mm 2 mps 745 mmHg 90%
    18:00 +8°C° 0 mm 2 mps 744 mmHg 90%
    19:00 +8°C° 0 mm 2 mps 744 mmHg 91%
    20:00 +8°C° 0 mm 2 mps 744 mmHg 90%
    21:00 +8°C° 0 mm 3 mps 743 mmHg 89%
    22:00 +8°C° 0 mm 3 mps 743 mmHg 88%
    23:00 +8°C° 0 mm 3 mps 743 mmHg 87%

    25 February, Tuesday

    Time Temperature Precipitation Wind Pressure Humidity
    00:00 +7°C° 0 mm 4 mps 742 mmHg 85%
    01:00 +6°C° 0 mm 4 mps 742 mmHg 84%
    02:00 +6°C° 0 mm 4 mps 742 mmHg 85%
    03:00 +6°C° 0 mm 4 mps 742 mmHg 86%
    04:00 +6°C° 0 mm 4 mps 741 mmHg 87%
    05:00 +6°C° 0 mm 4 mps 741 mmHg 87%
    06:00 +6°C° 0 mm 4 mps 741 mmHg 87%
    07:00 +6°C° 0 mm 4 mps 741 mmHg 87%
    08:00 +7°C° 0 mm 4 mps 741 mmHg 84%
    09:00 +8°C° 0 mm 5 mps 740 mmHg 82%
    10:00 +8°C° 0 mm 5 mps 740 mmHg 79%
    11:00 +9°C° 0 mm 5 mps 740 mmHg 78%
    12:00 +9°C° 0 mm 5 mps 740 mmHg 77%
    13:00 +9°C° 0 mm 5 mps 739 mmHg 76%
    14:00 +9°C° 0.1 mm 5 mps 739 mmHg 77%
    15:00 +10°C° 0.1 mm 4 mps 738 mmHg 79%
    16:00 +10°C° 0.1 mm 4 mps 738 mmHg 80%
    17:00 +8°C° 0.1 mm 4 mps 737 mmHg 82%
    18:00 +9°C° 0.1 mm 3 mps 737 mmHg 83%
    19:00 +8°C° 0.1 mm 3 mps 737 mmHg 84%
    20:00 +8°C° 0.2 mm 3 mps 737 mmHg 85%
    21:00 +8°C° 0.2 mm 3 mps 737 mmHg 86%
    22:00 +7°C° 0.2 mm 3 mps 737 mmHg 87%
    23:00 +7°C° 0.5 mm 3 mps 737 mmHg 88%
    Show more